Regional Weather Roundup
Issued by NWS

Home | Current Version | Previous Version | Text Only | Print | Product List | Glossary On
Versions: 1 2 3 4 5 6 7 8 9 10 11 12 13 14 15 16 17 18 19 20 21 22 23 24 25 26 27 28 29 30 31 32 33 34 35 36 37 38 39 40 41 42 43 44 45 46 47 48 49 50
319
ASUS44 KLIX 201105
RWRLA
LOUISIANA WEATHER ROUNDUP
NATIONAL WEATHER SERVICE NEW ORLEANS LA
600 AM CDT SAT SEP 20 2014

NOTE: "FAIR" INDICATES FEW OR NO CLOUDS BELOW 12,000 FEET WITH NO
      SIGNIFICANT WEATHER AND/OR OBSTRUCTIONS TO VISIBILITY.
      SKY/WX - SKY CONDITION AND SIGNIFICANT WEATHER.
      TMP - AIR TEMPERATURE.    DP   - DEWPOINT TEMPERATURE.
      RH  - RELATIVE HUMIDITY.  PRES - PRESSURE.
      HX  - HEAT INDEX.         WCI  - WIND CHILL INDEX.

*  THESE STATIONS ARE NOT NWS OR FAA STATIONS AND ARE NOT UNDER
   NWS QUALITY CONTROL.

LAZ040-048-061>063-065-066-069-201200-
SOUTHEAST LOUISIANA

CITY           SKY/WX    TMP DP  RH WIND       PRES   REMARKS
N.O. AUDUBON     N/A     79  71  77 MISG        N/A
N.O. INTL ARPT CLEAR     78  71  79 E7        29.93S
N.O. LAKEFRONT CLEAR     78  73  84 NE15      29.94R
N.O. DOWNTOWN* FAIR      79  68  69 CALM      29.94R
SLIDELL        CLEAR     71  68  90 NE3       29.95R
BATON ROUGE    CLEAR     69  67  93 NE6       29.96R
BOOTHVILLE     CLEAR     81  71  71 E10       29.92R
BELLE CHASSE   PTCLDY    75  68  78 NE7       29.92S
BOGALUSA*      FAIR      69  66  90 CALM      29.99R
GALLIANO*      NOT AVBL
NEW ROADS*     FAIR      68  67  97 N6        29.97R
GONZALES*      FAIR      72  72 100 NE3       29.94R
HAMMOND*       NOT AVBL
HOUMA*         MOCLDY    73  67  79 CALM      29.92R
PORT FOURCHON* PTSUNNY   81  72  74 E15       29.93S

$$

LAZ041-044-053-054-201200-
SOUTHWEST LOUISIANA

CITY           SKY/WX    TMP DP  RH WIND       PRES   REMARKS
LAKE CHARLES   CLEAR     71  69  93 NE6       29.94R
LAFAYETTE      CLEAR     71  70  96 NE6       29.95R
PATTERSON      CLEAR     72  70  94 NE5         N/A
SALT POINT       N/A     75  71  87 CALM      29.92R
NEW IBERIA     CLEAR     73  70  90 NE8       29.95R
CHENAULT AIRPK NOT AVBL

$$

LAZ027-028-201200-
CENTRAL LOUISIANA

CITY           SKY/WX    TMP DP  RH WIND       PRES   REMARKS
FORT POLK      CLEAR     69  67  93 CALM      29.97R
ALEXANDRIA INT CLEAR     67  66  97 CALM      29.96R FOG
ALEXANDRIA     PTCLDY    67  64  90 CALM      29.98R FOG

$$

LAZ001-002-201200-
NORTHWEST LOUISIANA

CITY           SKY/WX    TMP DP  RH WIND       PRES   REMARKS
SHREVEPORT     CLEAR     71  68  90 CALM      29.98R
BARKSDALE AFB  CLEAR     69  69 100 N2        29.99R
DTN SHREVEPORT CLEAR     69  32  25 CALM      29.99R HAZE

$$

LAZ014-016-201200-
NORTHEAST LOUISIANA

CITY           SKY/WX    TMP DP  RH WIND       PRES   REMARKS
MONROE         CLEAR     68  67  96 CALM      30.00R FOG
TALLULAH       MOCLDY    65  64  97 CALM      30.00R

$$




USA.gov is the U.S. government's official web portal to all federal, state and local government web resources and services.